User: anonymous   Login
Location: Peebles
(55.6412°N, 3.1714°W)
Time: 09:33:06
(UTC+01:00)
Language:

DMSP 7529 - Orbit

View from above orbital plane
View from above orbital plane
View from above satellite
View from above satellite

Ground track
Ground track

The orbit data is extracted from the following two-line orbital elements,

1 06787U 73054A   23160.85857404  .00000339  00000-0  14161-3 0  9991
2 06787  98.7107  15.3351 0027113  50.4580 309.8993 14.32376701593749
Epoch (UTC): 09 June 2023 20:36:20
Eccentricity: 0.0027113
inclination: 98.7107°
perigee height: 764 km
apogee height: 803 km
right ascension of ascending node: 15.3351°
argument of perigee: 50.4580°
revolutions per day: 14.32376701
mean anomaly at epoch: 309.8993°
orbit number at epoch: 59374

The dashed part of the orbit path shows where the satellite is in the earth's shadow,  

DLR